User: anonymous   Login
Location: Forst
(46.9333°N, 15.4333°E)
Time: 07:20:46
(UTC+00:00)
Language:

CORIOLIS - Orbit

View from above orbital plane
View from above orbital plane
View from above satellite
View from above satellite

Ground track
Ground track

The orbit data is extracted from the following two-line orbital elements,

1 27640U 03001A   21057.95289463  .00000009  00000-0  25185-4 0  9998
2 27640  98.7251  69.4609 0014653  29.1741  27.9335 14.19062330939537
Epoch (UTC): 26 February 2021 22:52:10
Eccentricity: 0.0014653
inclination: 98.7251°
perigee height: 818 km
apogee height: 839 km
right ascension of ascending node: 69.4609°
argument of perigee: 29.1741°
revolutions per day: 14.19062330
mean anomaly at epoch: 27.9335°
orbit number at epoch: 93953

The dashed part of the orbit path shows where the satellite is in the earth's shadow,  

DLR